Weather History for Orange, MA

Change the Weather History Date:

Monday, February 4, 2013

  Actual Average Record
Temperature  
Mean Temperature 20 °F -  
Max Temperature 26 °F 32 °F 46 °F (2006)
Min Temperature 14 °F 11 °F -11 °F (2011)
Degree Days  
Heating Degree Days 45    
Moisture  
Dew Point 6 °F    
Average Humidity 55    
Maximum Humidity 88    
Minimum Humidity 37    
Precipitation  
Precipitation 0.00 in - - ()
Sea Level Pressure  
Sea Level Pressure 29.84 in    
Wind  
Wind Speed 7 mph (West)    
Max Wind Speed 21 mph    
Max Gust Speed 30 mph    
Visibility 10 miles    
Events      
Averages and records for this station are not official NWS values.
T = Trace of Precipitation, MM = Missing Value Source: NWS Daily Summary

Daily Weather History Graph

Daily Weather History Graph

Search for Another Location

Airport:

Trip Planner

Search our weather history database for the weather conditions in past years. The results will help you decide how hot, cold, wet, or windy it might be!

Date:

Astronomy

Feb. 04, 2013 Rise Set
Actual Time 6:59 AM EST 5:07 PM EST
Civil Twilight 6:30 AM EST 5:36 PM EST
Nautical Twilight 5:56 AM EST 6:10 PM EST
Astronomical Twilight 5:23 AM EST 6:43 PM EST
Moon 1:33 AM EST (2/4) 11:26 AM EST (2/4)
Length of Visible Light 11h 06m
Length of Day
10h 07m
Last Quarter, 37% of the Moon is Illuminated
Feb 4
Last Quarter
Feb 10
New
Feb 17
First Quarter
Feb 25
Full
Mar 4
Last Quarter

Hourly Weather History & Observations

Time (EST) Temp. Windchill Dew Point Humidity Pressure Visibility Wind Dir Wind Speed Gust Speed Precip Events Conditions
12:52 AM 15.1 °F - 12.0 °F 88% 29.75 in 7.0 mi Calm Calm - N/A   Overcast
1:52 AM 17.1 °F - 12.9 °F 84% 29.75 in 10.0 mi Calm Calm - N/A   Overcast
2:52 AM 19.9 °F 13.4 °F 10.9 °F 68% 29.75 in 10.0 mi West 4.6 mph - N/A   Mostly Cloudy
3:52 AM 19.0 °F - 12.0 °F 74% 29.75 in 10.0 mi Calm Calm - N/A   Scattered Clouds
7:52 AM 21.0 °F 16.2 °F 10.0 °F 63% 29.81 in 10.0 mi SW 3.5 mph - N/A   Mostly Cloudy
8:52 AM 21.9 °F 10.4 °F 9.0 °F 58% 29.82 in 10.0 mi NW 11.5 mph 18.4 mph N/A   Partly Cloudy
9:52 AM 21.9 °F 8.2 °F 7.0 °F 53% 29.83 in 10.0 mi NW 16.1 mph 29.9 mph N/A   Scattered Clouds
10:52 AM 23.0 °F 9.6 °F 8.1 °F 53% 29.82 in 10.0 mi West 16.1 mph 24.2 mph N/A   Overcast
11:52 AM 24.1 °F 13.7 °F 7.0 °F 48% 29.81 in 10.0 mi WNW 10.4 mph - N/A   Overcast
12:52 PM 25.0 °F 11.7 °F 3.9 °F 41% 29.81 in 10.0 mi West 17.3 mph 29.9 mph N/A   Overcast
1:52 PM 26.1 °F 12.0 °F 3.0 °F 37% 29.80 in 10.0 mi WNW 20.7 mph 28.8 mph N/A   Overcast
2:52 PM 25.0 °F 13.1 °F 3.0 °F 39% 29.82 in 10.0 mi West 13.8 mph 28.8 mph N/A   Overcast
3:52 PM 24.1 °F 10.1 °F 1.0 °F 37% 29.83 in 10.0 mi West 18.4 mph 29.9 mph N/A   Partly Cloudy
4:52 PM 23.0 °F 11.1 °F 3.0 °F 42% 29.84 in 10.0 mi WNW 12.7 mph 25.3 mph N/A   Clear
5:52 PM 21.9 °F 11.7 °F 3.9 °F 46% 29.87 in 10.0 mi WNW 9.2 mph 17.3 mph N/A   Scattered Clouds
6:52 PM 19.9 °F 11.1 °F 3.9 °F 50% 29.88 in 10.0 mi WNW 6.9 mph - N/A   Clear
7:52 PM 19.9 °F 11.1 °F 3.9 °F 50% 29.91 in 10.0 mi West 6.9 mph - N/A   Partly Cloudy
8:52 PM 19.0 °F 10.0 °F 3.9 °F 52% 29.92 in 10.0 mi West 6.9 mph - N/A   Partly Cloudy
9:52 PM 18.0 °F 9.8 °F 3.9 °F 54% 29.92 in 10.0 mi West 5.8 mph - N/A   Clear
10:52 PM 14.0 °F - 3.9 °F 64% 29.94 in 10.0 mi Calm Calm - N/A   Clear
11:52 PM 16.0 °F 8.8 °F 3.9 °F 59% 29.95 in 10.0 mi WSW 4.6 mph - N/A   Scattered Clouds